Weather History for KMEH - February, 2014

Change the Weather History Date:

Monday, February 17, 2014

  Actual Average Record
Temperature  
Mean Temperature 38 °F -  
Max Temperature 45 °F 38 °F 54 °F (2007)
Min Temperature 30 °F 20 °F -13 °F (2006)
Degree Days  
Heating Degree Days 28    
Moisture  
Dew Point 29 °F    
Average Humidity 78    
Maximum Humidity 92    
Minimum Humidity 42    
Precipitation  
Precipitation 0.16 in - - ()
Sea Level Pressure  
Sea Level Pressure 29.86 in    
Wind  
Wind Speed 2 mph (WNW)    
Max Wind Speed 6 mph    
Max Gust Speed -    
Visibility 9 miles    
Events Rain , Snow    
Averages and records for this station are not official NWS values.
T = Trace of Precipitation, MM = Missing Value Source: NWS Daily Summary

Daily Weather History Graph

Daily Weather History Graph

Search for Another Location

Airport or City:

Trip Planner

Search our weather history database for the weather conditions in past years. The results will help you decide how hot, cold, wet, or windy it might be!

Date:

Astronomy

Feb. 17, 2014 Rise Set
Actual Time 6:52 AM PST 5:23 PM PST
Civil Twilight 6:21 AM PST 5:54 PM PST
Nautical Twilight 5:47 AM PST 6:28 PM PST
Astronomical Twilight 5:13 AM PST 7:03 PM PST
Moon 8:34 PM PST (2/17) 7:45 AM PST (2/17)
Length of Visible Light 11h 32m
Length of Day
10h 31m
Waning Gibbous, 93% of the Moon is Illuminated
Feb 17
Waning Gibbous
Feb 22
Last Quarter
Mar 1
New
Mar 8
First Quarter
Mar 16
Full

Hourly Weather History & Observations

Time (PST) Temp. Windchill Dew Point Humidity Pressure Visibility Wind Dir Wind Speed Gust Speed Precip Events Conditions
12:56 AM 30.0 °F - 23.0 °F 75% 29.93 in 10.0 mi Calm Calm - N/A   Clear
1:56 AM 32.0 °F - 24.1 °F 73% 29.92 in 10.0 mi Calm Calm - N/A   Clear
2:56 AM 30.0 °F - 24.1 °F 79% 29.90 in 10.0 mi Calm Calm - N/A   Clear
3:56 AM 34.0 °F - 23.0 °F 64% 29.87 in 10.0 mi Calm Calm - N/A   Clear
4:56 AM 37.9 °F 35.5 °F 21.9 °F 53% 29.86 in 10.0 mi Variable 3.5 mph - N/A   Partly Cloudy
5:56 AM 37.9 °F 35.5 °F 21.9 °F 53% 29.86 in 10.0 mi Variable 3.5 mph - N/A   Mostly Cloudy
6:56 AM 37.9 °F 35.5 °F 21.9 °F 53% 29.85 in 10.0 mi Variable 3.5 mph - N/A   Overcast
7:56 AM 37.9 °F 35.5 °F 23.0 °F 55% 29.85 in 10.0 mi Variable 3.5 mph - N/A   Overcast
8:56 AM 42.1 °F 40.2 °F 21.9 °F 45% 29.82 in 10.0 mi Variable 3.5 mph - N/A   Overcast
9:56 AM 43.0 °F 39.5 °F 23.0 °F 45% 29.79 in 10.0 mi Variable 5.8 mph - N/A   Overcast
10:56 AM 45.0 °F 41.8 °F 23.0 °F 42% 29.79 in 10.0 mi Variable 5.8 mph - N/A   Overcast
11:56 AM 45.0 °F - 26.1 °F 48% 29.80 in 10.0 mi North - - 0.00 in Rain Light Rain
12:56 PM 39.0 °F 36.8 °F 34.0 °F 82% 29.83 in 5.0 mi Variable 3.5 mph - 0.01 in Rain Light Rain
1:05 PM 39.0 °F - 35.1 °F 86% 29.76 in 10.0 mi Calm Calm - 0.00 in Rain Light Rain
1:41 PM 39.0 °F - 34.0 °F 82% 29.78 in 3.0 mi Calm Calm - 0.01 in Rain Light Rain
1:53 PM 39.2 °F - 33.8 °F 81% 29.77 in 9.0 mi Calm Calm - 0.02 in Rain Light Rain
1:56 PM 39.0 °F 36.8 °F 34.0 °F 82% 29.82 in 10.0 mi Variable 3.5 mph - 0.02 in Rain Light Rain
2:30 PM 37.0 °F 33.3 °F 34.0 °F 89% 29.79 in 10.0 mi Variable 4.6 mph - 0.06 in Rain Light Rain
2:56 PM 37.0 °F 33.3 °F 34.0 °F 89% 29.86 in 10.0 mi Variable 4.6 mph - 0.06 in   Overcast
3:32 PM 37.0 °F - 33.1 °F 86% 29.81 in 10.0 mi Calm Calm - 0.02 in   Overcast
3:56 PM 37.0 °F 34.5 °F 30.9 °F 79% 29.87 in 10.0 mi Variable 3.5 mph - 0.02 in   Overcast
4:26 PM 37.0 °F - 32.0 °F 82% 29.82 in 9.0 mi Calm Calm - 0.00 in Rain Light Rain
4:56 PM 36.0 °F - 33.1 °F 89% 29.86 in 10.0 mi Calm Calm - 0.00 in   Overcast
5:38 PM 35.1 °F - 30.9 °F 85% 29.83 in 10.0 mi Calm Calm - 0.00 in   Overcast
5:56 PM 35.1 °F - 30.9 °F 85% 29.87 in 8.0 mi Calm Calm - 0.00 in Snow Light Snow
6:12 PM 35.1 °F 32.2 °F 32.0 °F 89% 29.83 in 8.0 mi Variable 3.5 mph - 0.00 in Snow Light Snow
6:56 PM 35.1 °F 31.0 °F 30.0 °F 82% 29.88 in 10.0 mi Variable 4.6 mph - 0.01 in   Overcast
7:15 PM 34.0 °F - 30.9 °F 89% 29.84 in 3.0 mi Calm Calm - 0.01 in Snow Light Snow
7:56 PM 34.0 °F 31.0 °F 30.9 °F 89% 29.91 in 5.0 mi Variable 3.5 mph - 0.01 in Snow Light Snow
8:03 PM 34.0 °F 28.8 °F 32.0 °F 92% 29.86 in 1.8 mi Variable 5.8 mph - 0.01 in Snow Light Snow
8:16 PM 34.0 °F 29.8 °F 30.9 °F 89% 29.87 in 3.0 mi Variable 4.6 mph - 0.03 in Snow Light Snow
8:56 PM 34.0 °F 31.0 °F 32.0 °F 92% 29.94 in 9.0 mi WNW 3.5 mph - 0.03 in   Overcast
9:08 PM 34.0 °F 31.0 °F 30.9 °F 89% 29.90 in 10.0 mi Variable 3.5 mph - N/A   Overcast
9:56 PM 33.1 °F 30.0 °F 30.0 °F 89% 29.96 in 10.0 mi Variable 3.5 mph - 0.00 in   Overcast
10:11 PM 33.1 °F - 30.9 °F 92% 29.92 in 10.0 mi Calm Calm - N/A   Overcast
10:26 PM 33.1 °F - 30.9 °F 92% 29.92 in 10.0 mi Calm Calm - N/A   Overcast
10:56 PM 33.1 °F - 30.9 °F 92% 29.97 in 10.0 mi Calm Calm - N/A   Overcast
11:04 PM 34.0 °F - 30.9 °F 89% 29.94 in 10.0 mi Calm Calm - N/A   Overcast
11:56 PM 34.0 °F - 30.9 °F 89% 29.99 in 10.0 mi Calm Calm - 0.00 in   Overcast